User: anonymous   Login
Location: Young's Pond
(41.2695°N, 72.7766°W)
Time: 00:57:03
(UTC-05:00)
Language:

Spot 4 - Orbit

View from above orbital plane
View from above orbital plane
View from above satellite
View from above satellite

Ground track
Ground track

The orbit data is extracted from the following two-line orbital elements,

1 25260U 98017A   15064.24271764  .00000444  00000-0  11825-3 0  9991
2 25260 098.4279 135.0211 0012089 320.4085 039.6223 14.53198713880576
Epoch (UTC): 05 March 2015 05:49:30
Eccentricity: 0.0012089
inclination: 98.4279°
perigee height: 706 km
apogee height: 724 km
right ascension of ascending node: 135.0211°
argument of perigee: 320.4085°
revolutions per day: 14.53198713
mean anomaly at epoch: 39.6223°
orbit number at epoch: 88057

The dashed part of the orbit path shows where the satellite is in the earth's shadow,  

DLR